TimeCST,TemperatureF,Dew PointF,Humidity,Sea Level PressureIn,VisibilityMPH,Wind Direction,Wind SpeedMPH,Gust SpeedMPH,PrecipitationIn,Events,Conditions,WindDirDegrees,DateUTC
12:15 AM,-5.8,-11.2,77,29.78,10.0,SW,18.4,-,N/A,,Clear,230,2014-01-29 06:15:00
12:35 AM,-5.8,-11.2,77,29.77,10.0,SW,18.4,-,N/A,,Clear,230,2014-01-29 06:35:00
12:55 AM,-5.8,-11.2,77,29.76,10.0,SW,15.0,-,N/A,,Clear,230,2014-01-29 06:55:00
1:15 AM,-7.6,-13.0,77,29.75,10.0,SW,15.0,-,N/A,,Clear,220,2014-01-29 07:15:00
1:35 AM,-7.6,-13.0,77,29.74,10.0,SW,15.0,-,N/A,,Clear,220,2014-01-29 07:35:00
1:55 AM,-9.4,-14.8,77,29.73,10.0,SSW,12.7,-,N/A,,Clear,210,2014-01-29 07:55:00
2:15 AM,-9.4,-14.8,77,29.71,10.0,SSW,11.5,-,N/A,,Clear,200,2014-01-29 08:15:00
2:35 AM,-7.6,-13.0,77,29.69,10.0,SSW,13.8,-,N/A,,Clear,200,2014-01-29 08:35:00
2:55 AM,-7.6,-13.0,77,29.67,10.0,SSW,13.8,-,N/A,,Clear,200,2014-01-29 08:55:00
3:15 AM,-5.8,-13.0,71,29.66,10.0,SSW,15.0,-,N/A,,Clear,210,2014-01-29 09:15:00
3:35 AM,-4.0,-11.2,71,29.64,10.0,SSW,17.3,-,N/A,,Clear,210,2014-01-29 09:35:00
3:55 AM,-4.0,-11.2,71,29.62,10.0,SSW,18.4,-,N/A,,Clear,210,2014-01-29 09:55:00
4:15 AM,-2.2,-9.4,71,29.60,10.0,SSW,17.3,-,N/A,,Clear,210,2014-01-29 10:15:00
4:35 AM,-2.2,-7.6,78,29.58,10.0,SSW,19.6,-,N/A,,Clear,200,2014-01-29 10:35:00
4:55 AM,-0.4,-7.6,72,29.56,10.0,SSW,18.4,-,N/A,,Clear,200,2014-01-29 10:55:00
5:15 AM,-0.4,-7.6,72,29.54,10.0,South,16.1,-,N/A,,Clear,190,2014-01-29 11:15:00
5:35 AM,-0.4,-5.8,78,29.51,10.0,South,19.6,-,N/A,,Clear,190,2014-01-29 11:35:00
5:55 AM,1.4,-4.0,78,29.49,8.0,SSW,23.0,-,N/A,,Clear,200,2014-01-29 11:55:00
6:15 AM,-0.4,-5.8,78,29.48,10.0,SSW,20.7,-,N/A,,Clear,200,2014-01-29 12:15:00
6:35 AM,-0.4,-4.0,85,29.47,10.0,SSW,19.6,-,N/A,,Clear,200,2014-01-29 12:35:00
6:55 AM,1.4,-4.0,78,29.46,10.0,SSW,21.9,-,N/A,,Clear,210,2014-01-29 12:55:00
7:15 AM,3.2,-2.2,78,29.46,10.0,SSW,19.6,-,N/A,,Clear,210,2014-01-29 13:15:00
7:55 AM,5.0,-2.2,72,29.42,10.0,SSW,18.4,-,N/A,,Clear,210,2014-01-29 13:55:00
8:15 AM,6.8,-0.4,72,29.41,8.0,SW,23.0,28.8,N/A,,Clear,220,2014-01-29 14:15:00
8:35 AM,8.6,1.4,73,29.41,8.0,SW,23.0,27.6,N/A,,Clear,230,2014-01-29 14:35:00
8:55 AM,10.4,3.2,73,29.40,9.0,SW,19.6,-,N/A,,Partly Cloudy,220,2014-01-29 14:55:00
9:15 AM,10.4,5.0,79,29.38,6.0,SW,23.0,29.9,N/A,,Haze,230,2014-01-29 15:15:00
9:35 AM,12.2,5.0,73,29.39,10.0,WSW,19.6,-,N/A,,Scattered Clouds,240,2014-01-29 15:35:00
9:55 AM,14.0,6.8,73,29.39,10.0,WSW,19.6,-,N/A,,Partly Cloudy,250,2014-01-29 15:55:00
10:15 AM,14.0,6.8,73,29.39,8.0,West,24.2,27.6,N/A,,Scattered Clouds,270,2014-01-29 16:15:00
10:35 AM,15.8,8.6,73,29.39,9.0,West,21.9,-,N/A,,Scattered Clouds,270,2014-01-29 16:35:00
10:55 AM,15.8,6.8,68,29.38,10.0,West,20.7,-,N/A,,Clear,280,2014-01-29 16:55:00
11:15 AM,15.8,6.8,68,29.39,10.0,West,20.7,-,N/A,,Clear,280,2014-01-29 17:15:00
11:35 AM,15.8,8.6,73,29.39,9.0,WNW,21.9,31.1,N/A,,Partly Cloudy,290,2014-01-29 17:35:00
11:55 AM,15.8,8.6,73,29.39,2.5,WNW,25.3,32.2,N/A,,Haze,300,2014-01-29 17:55:00
12:15 PM,15.8,8.6,73,29.39,4.0,NW,27.6,33.4,N/A,,Haze,310,2014-01-29 18:15:00
12:35 PM,15.8,6.8,68,29.40,1.8,NW,25.3,35.7,N/A,,Haze,320,2014-01-29 18:35:00
12:55 PM,15.8,6.8,68,29.41,5.0,NW,27.6,33.4,N/A,,Haze,320,2014-01-29 18:55:00
1:15 PM,14.0,6.8,73,29.41,9.0,NW,24.2,31.1,N/A,,Scattered Clouds,310,2014-01-29 19:15:00
1:35 PM,14.0,5.0,67,29.41,10.0,NW,25.3,29.9,N/A,,Partly Cloudy,320,2014-01-29 19:35:00
1:55 PM,14.0,5.0,67,29.41,10.0,NW,23.0,28.8,N/A,,Scattered Clouds,320,2014-01-29 19:55:00
2:15 PM,14.0,6.8,73,29.42,10.0,NW,21.9,25.3,N/A,,Mostly Cloudy,320,2014-01-29 20:15:00
2:35 PM,14.0,6.8,73,29.43,10.0,NW,18.4,25.3,N/A,,Mostly Cloudy,320,2014-01-29 20:35:00
2:55 PM,14.0,6.8,73,29.44,10.0,NW,16.1,25.3,N/A,,Mostly Cloudy,320,2014-01-29 20:55:00
3:15 PM,14.0,6.8,73,29.44,7.0,NW,21.9,28.8,N/A,,Mostly Cloudy,310,2014-01-29 21:15:00
3:35 PM,12.2,6.8,79,29.43,3.0,NW,24.2,29.9,N/A,Snow,Light Snow,310,2014-01-29 21:35:00
3:55 PM,12.2,5.0,73,29.45,5.0,NW,23.0,29.9,N/A,,Haze,310,2014-01-29 21:55:00
4:15 PM,10.4,5.0,79,29.45,10.0,NW,19.6,-,N/A,Snow,Light Snow,310,2014-01-29 22:15:00
4:35 PM,10.4,5.0,79,29.45,10.0,NW,13.8,-,N/A,,Overcast,310,2014-01-29 22:35:00
4:55 PM,12.2,6.8,79,29.47,10.0,NW,11.5,-,N/A,,Overcast,310,2014-01-29 22:55:00
5:15 PM,12.2,6.8,79,29.48,10.0,WNW,12.7,-,N/A,,Overcast,300,2014-01-29 23:15:00
5:35 PM,12.2,6.8,79,29.47,10.0,WNW,17.3,23.0,N/A,Snow,Light Snow,300,2014-01-29 23:35:00
5:55 PM,10.4,6.8,85,29.47,10.0,WNW,17.3,-,N/A,,Overcast,300,2014-01-29 23:55:00
6:15 PM,10.4,5.0,79,29.48,10.0,NW,17.3,-,N/A,,Overcast,310,2014-01-30 00:15:00
6:35 PM,10.4,3.2,73,29.49,10.0,WNW,17.3,-,N/A,,Scattered Clouds,300,2014-01-30 00:35:00
6:55 PM,8.6,3.2,79,29.50,10.0,NW,19.6,-,N/A,,Scattered Clouds,310,2014-01-30 00:55:00
7:15 PM,8.6,3.2,79,29.49,10.0,NW,15.0,-,N/A,,Scattered Clouds,310,2014-01-30 01:15:00
7:35 PM,8.6,1.4,73,29.50,10.0,NW,13.8,-,N/A,,Partly Cloudy,320,2014-01-30 01:35:00
7:55 PM,8.6,1.4,73,29.51,10.0,NNW,11.5,-,N/A,,Scattered Clouds,330,2014-01-30 01:55:00
8:15 PM,6.8,-0.4,72,29.50,10.0,NW,16.1,23.0,N/A,,Scattered Clouds,320,2014-01-30 02:15:00
8:35 PM,6.8,-0.4,72,29.52,10.0,NNW,17.3,-,N/A,,Clear,330,2014-01-30 02:35:00
8:55 PM,5.0,-0.4,78,29.53,10.0,NNW,23.0,-,N/A,,Partly Cloudy,330,2014-01-30 02:55:00
9:15 PM,5.0,-2.2,72,29.54,10.0,NNW,21.9,-,N/A,,Clear,340,2014-01-30 03:15:00
9:35 PM,3.2,-2.2,78,29.54,10.0,NNW,19.6,-,N/A,,Clear,330,2014-01-30 03:35:00
9:55 PM,1.4,-4.0,78,29.53,10.0,NNW,18.4,25.3,N/A,,Clear,330,2014-01-30 03:55:00
10:15 PM,1.4,-4.0,78,29.54,10.0,NNW,16.1,-,N/A,,Clear,340,2014-01-30 04:15:00
10:35 PM,1.4,-4.0,78,29.55,10.0,NNW,16.1,-,N/A,,Clear,340,2014-01-30 04:35:00
10:55 PM,-0.4,-4.0,85,29.56,10.0,NNW,15.0,-,N/A,,Clear,340,2014-01-30 04:55:00
11:15 PM,-0.4,-4.0,85,29.56,10.0,NNW,13.8,-,N/A,,Clear,340,2014-01-30 05:15:00
11:35 PM,-0.4,-4.0,85,29.57,10.0,NNW,11.5,-,N/A,,Clear,340,2014-01-30 05:35:00
11:55 PM,-0.4,-5.8,78,29.58,10.0,North,11.5,-,N/A,,Scattered Clouds,350,2014-01-30 05:55:00